Location: Albuquerque Trailhead
(34.7934°N, 106.3736°W)
Time: 00:36:44
(UTC+00:00)

USA 215 - Pass Details

Date: 20 June 2021
Orbit: 1100 x 1107 km, 123.0° (Epoch: 01 August)

Event Time Altitude Azimuth Distance (km) Brightness Sun altitude
Rises 06:06:32 0° 38° (NE) 3,919 6.6 -30.0°
Reaches altitude 10° 06:09:04 10° 34° (NE) 2,959 6.0 -30.2°
Maximum altitude 06:15:22 53° 320° (NW) 1,333 3.9 -30.5°
Enters shadow 06:20:14 17° 250° (WSW) 2,440 5.0 -30.7°
